This demonstration page uses our WeatherBlox Daily Observations layout. Learn more.

Left ArrowRight Arrow

30.21309, -93.2044

Hourly Observations for October 8, 2015

Temp ( °F °C ) Dew Point ( °F °C ) Humidity (%) Winds ( mph kmh ) Pressure ( in mb ) Visibility ( mi km ) Precip ( " mm )
12:15 am 00:15 Clear 71 21.4 67 19.5 89 89 Calm 30.00 1016 10 16 0.00 0.00
12:35 am 00:35 Clear 71 21.6 67 19.7 89 89 Calm 30.00 1016 10 16 0.00 0.00
12:55 am 00:55 Clear 71 21.7 67 19.7 88 88 Calm 30.00 1016 10 16 0.00 0.00
1:15 am 01:15 Clear 71 21.5 67 19.6 89 89 Calm 30.00 1016 10 16 0.00 0.00
1:35 am 01:35 Clear 71 21.7 68 19.8 89 89 Calm 30.00 1016 10 16 0.00 0.00
1:55 am 01:55 Clear 71 21.5 67 19.7 90 90 Calm 30.00 1016 10 16 0.00 0.00
2:15 am 02:15 Clear 71 21.9 67 19.5 86 86 Calm 30.00 1016 10 16 0.00 0.00
2:35 am 02:35 Clear 71 21.7 67 19.5 87 87 Calm 30.00 1016 10 16 0.00 0.00
2:55 am 02:55 Clear 71 21.9 67 19.2 85 85 NW 3 6 30.00 1016 10 16 0.00 0.00
3:15 am 03:15 Clear 72 22 67 19.5 86 86 NW 3 6 30.00 1016 10 16 0.00 0.00
3:35 am 03:35 Clear 71 21.8 67 19.3 86 86 Calm 30.00 1016 10 16 0.00 0.00
3:55 am 03:55 Clear 71 21.5 67 19.2 87 87 NW 3 6 30.00 1016 10 16 0.00 0.00
4:15 am 04:15 Clear 71 21.4 66 19 86 86 NNW 3 6 30.00 1016 10 16 0.00 0.00
4:35 am 04:35 Partly Cloudy 71 21.5 66 19.1 86 86 NNW 3 6 30.00 1016 10 16 0.00 0.00
4:55 am 04:55 Partly Cloudy 71 21.7 67 19.2 86 86 NW 3 6 30.00 1016 10 16 0.00 0.00
5:15 am 05:15 Partly Cloudy 71 21.5 66 19 86 86 Calm 30.00 1016 10 16 0.00 0.00
6:00 am 06:00 Mostly Clear 70 21 66 19 88 88 S 6 9 30.00 1016 10 16 0.00 0.00
6:55 am 06:55 Mostly Cloudy 70 21 66 19 88 88 S 6 9 30.03 1017 10 16 0.00 0.00
7:55 am 07:55 Mostly Cloudy 70 21 68 20 94 94 Calm 30.03 1017 7 11 0.00 0.00
8:55 am 08:55 Mostly Cloudy 72 22 68 20 88 88 Calm 30.06 1018 7 11 0.00 0.00
9:45 am 09:45 Partly Cloudy 75 24 68 20 78 78 Calm 30.06 1018 7 11 0.00 0.00
10:58 am 10:58 Mostly Sunny 82 28 68 20 62 62 Calm 30.06 1018 7 11 0.00 0.00
11:55 am 11:55 Mostly Sunny 84 29 68 20 58 58 ESE 3 6 30.06 1018 7 11 0.00 0.00
12:50 pm 12:50 Mostly Sunny 86 30 68 20 55 55 NE 3 6 30.03 1017 10 16 0.00 0.00
1:50 pm 13:50 Partly Cloudy 90 32 68 20 49 49 ENE 8 13 30.03 1017 10 16 0.00 0.00
2:50 pm 14:50 Mostly Cloudy 88 31 66 19 49 49 Calm 30.00 1016 10 16 0.00 0.00
3:50 pm 15:50 Mostly Cloudy 86 30 68 20 55 55 E 6 9 29.97 1015 10 16 0.00 0.00
4:50 pm 16:50 Mostly Sunny 84 29 68 20 58 58 S 8 13 29.97 1015 10 16 0.00 0.00
5:50 pm 17:50 Mostly Sunny 84 29 68 20 58 58 S 7 11 29.97 1015 10 16 0.00 0.00
6:50 pm 18:50 Mostly Sunny 81 27 70 21 70 70 S 7 11 29.97 1015 10 16 0.00 0.00
7:50 pm 19:50 Mostly Clear 79 26 70 21 74 74 SSW 6 9 30.00 1016 10 16 0.00 0.00
8:50 pm 20:50 Mostly Clear 75 24 72 22 89 89 S 6 9 30.03 1017 10 16 0.00 0.00
10:15 pm 22:15 Clear 75 24.1 71 21.5 85 85 Calm 30.06 1018 10 16 0.00 0.00
10:35 pm 22:35 Clear 75 24 71 21.5 86 86 SSW 3 6 30.06 1018 10 16 0.00 0.00
10:55 pm 22:55 Clear 75 24 71 21.5 86 86 Calm 30.06 1018 10 16 0.00 0.00
11:15 pm 23:15 Clear 74 23.4 70 21.2 88 88 Calm 30.06 1018 10 16 0.00 0.00
11:35 pm 23:35 Clear 73 23 71 21.5 91 91 Calm 30.06 1018 10 16 0.00 0.00
11:55 pm 23:55 Clear 73 22.9 71 21.4 91 91 Calm 30.06 1018 10 16 0.00 0.00

Powered by AerisWeather